FW5313 Weather Reports


Display with metric or nautical units.
time (UTC)temp
F
wind
direction
speed
MPH
gust
MPH
rain 1hr
in
rain 24hr
in
rain mn
in
humidity
%
barometer
mb
20260508102546 34 0 0.0 1.0 0.00 0.00 0.00 76 1006.7
20260508102046 34 0 0.0 1.0 0.00 0.00 0.00 76 1006.7
20260508101556 34 96 0.0 1.0 0.00 0.00 0.00 74 1006.7
20260508101047 34 98 0.0 1.0 0.00 0.00 0.00 75 1006.7
20260508100546 34 97 0.0 1.0 0.00 0.00 0.00 74 1006.7
20260508100049 34 97 0.0 1.0 0.00 0.00 0.00 74 1006.6
20260508095550 34 97 0.0 1.0 0.00 0.00 0.00 74 1006.6
20260508095045 34 98 1.0 1.0 0.00 0.00 0.00 74 1006.5
20260508094555 34 97 0.0 1.0 0.00 0.00 0.00 75 1006.5
20260508094043 34 97 0.0 2.0 0.00 0.00 0.00 74 1006.3
20260508093547 34 98 0.0 2.0 0.00 0.00 0.00 74 1006.3
20260508093057 34 97 1.0 2.0 0.00 0.00 0.00 75 1006.3
20260508092546 34 97 0.0 1.0 0.00 0.00 0.00 74 1006.3
20260508092045 34 98 0.0 1.0 0.00 0.00 0.00 75 1006.4
20260508091552 34 97 0.0 1.0 0.00 0.00 0.00 76 1006.3
20260508091045 34 97 0.0 1.0 0.00 0.00 0.00 75 1006.4
20260508090546 34 97 0.0 1.0 0.00 0.00 0.00 75 1006.2
20260508090111 34 98 0.0 1.0 0.00 0.00 0.00 75 1006.2
20260508085546 34 0 0.0 0.0 0.00 0.00 0.00 75 1006.2
20260508085046 34 0 0.0 1.0 0.00 0.00 0.00 76 1006.3
20260508084555 34 0 0.0 1.0 0.00 0.00 0.00 74 1006.2
20260508084050 34 0 0.0 1.0 0.00 0.00 0.00 74 1006.1
20260508083550 34 98 0.0 1.0 0.00 0.00 0.00 77 1006.2
20260508083056 35 97 0.0 1.0 0.00 0.00 0.00 75 1006.1
20260508082547 35 97 0.0 2.0 0.00 0.00 0.00 73 1006.2
20260508082043 35 98 0.0 2.0 0.00 0.00 0.00 72 1006.2
20260508081616 35 84 1.0 2.0 0.00 0.00 0.00 71 1006.3
20260508081046 35 85 0.0 2.0 0.00 0.00 0.00 73 1006.3
20260508080543 35 86 0.0 3.0 0.00 0.00 0.00 72 1006.1
20260508080055 34 77 0.0 3.0 0.00 0.00 0.00 73 1006.2
20260508075545 34 62 0.0 3.0 0.00 0.00 0.00 72 1006.2
20260508075048 35 0 0.0 1.0 0.00 0.00 0.00 72 1006.0
20260508074558 35 69 0.0 1.0 0.00 0.00 0.00 74 1006.1
20260508074045 35 68 0.0 1.0 0.00 0.00 0.00 73 1005.9
20260508073543 35 68 1.0 1.0 0.00 0.00 0.00 71 1005.9
20260508073059 35 68 0.0 2.0 0.00 0.00 0.00 71 1006.0
20260508072543 35 68 0.0 2.0 0.00 0.00 0.00 71 1005.9
20260508072047 35 60 0.0 2.0 0.00 0.00 0.00 72 1005.9
20260508071555 35 0 0.0 2.0 0.00 0.00 0.00 72 1006.0
20260508071043 35 60 0.0 1.0 0.00 0.00 0.00 71 1005.9
20260508070547 35 60 0.0 1.0 0.00 0.00 0.00 71 1006.0
20260508070107 35 60 0.0 1.0 0.00 0.00 0.00 72 1006.1
20260508065546 35 60 1.0 1.0 0.00 0.00 0.00 71 1006.1
20260508065045 35 59 0.0 1.0 0.00 0.00 0.00 73 1006.1
20260508064603 35 60 0.0 1.0 0.00 0.00 0.00 72 1006.1
20260508064046 35 0 1.0 1.0 0.00 0.00 0.00 72 1006.2
20260508063546 35 0 0.0 1.0 0.00 0.00 0.00 72 1006.2
20260508063055 35 59 0.0 1.0 0.00 0.00 0.00 73 1006.1
20260508062545 35 59 0.0 1.0 0.00 0.00 0.00 73 1006.2
20260508062045 35 0 0.0 2.0 0.00 0.00 0.00 73 1006.2
20260508061551 35 59 0.0 2.0 0.00 0.00 0.00 71 1006.1
20260508061045 35 0 1.0 2.0 0.00 0.00 0.00 70 1006.1
20260508060546 35 59 0.0 1.0 0.00 0.00 0.00 69 1006.2
20260508060056 35 59 0.0 1.0 0.00 0.00 0.00 70 1006.2
20260508055544 35 59 0.0 1.0 0.00 0.00 0.00 69 1006.3
20260508055045 35 59 0.0 1.0 0.00 0.00 0.00 69 1006.4
20260508054616 36 59 0.0 1.0 0.00 0.00 0.00 68 1006.4
20260508054044 36 59 0.0 1.0 0.00 0.00 0.00 68 1006.4
20260508053544 36 0 0.0 1.0 0.00 0.00 0.00 67 1006.7
20260508053050 36 59 0.0 1.0 0.00 0.00 0.00 70 1006.5
20260508052546 36 0 0.0 1.0 0.00 0.00 0.00 68 1006.6
20260508052045 36 59 0.0 1.0 0.00 0.00 0.00 69 1006.6
20260508051551 36 59 0.0 1.0 0.00 0.00 0.00 68 1006.9
20260508051046 36 0 0.0 1.0 0.00 0.00 0.00 68 1006.9
20260508050546 36 59 0.0 1.0 0.00 0.00 0.00 68 1006.9
20260508050048 36 59 0.0 1.0 0.00 0.00 0.00 69 1006.9
20260508045547 36 59 0.0 1.0 0.00 0.00 0.00 69 1007.0
20260508045045 36 59 0.0 1.0 0.00 0.00 0.00 68 1006.9
20260508044559 36 59 0.0 1.0 0.00 0.00 0.00 68 1007.0
20260508044046 37 59 1.0 1.0 0.00 0.00 0.00 65 1006.9
20260508043543 37 56 0.0 2.0 0.00 0.00 0.00 67 1007.0
20260508043052 37 56 0.0 2.0 0.00 0.00 0.00 64 1006.9
20260508042545 37 56 0.0 2.0 0.00 0.00 0.00 66 1006.9
20260508042047 37 56 0.0 2.0 0.00 0.00 0.00 64 1006.9
20260508041557 37 56 0.0 2.0 0.00 0.00 0.00 66 1006.9
20260508041042 37 0 0.0 1.0 0.00 0.00 0.00 64 1007.0
20260508040544 37 56 0.0 1.0 0.00 0.00 0.00 64 1007.0
20260508040059 37 0 0.0 1.0 0.00 0.00 0.00 63 1007.0
20260508035545 37 67 0.0 2.0 0.00 0.00 0.00 64 1007.1
20260508035046 37 67 0.0 2.0 0.00 0.00 0.00 66 1007.2
20260508034600 37 67 0.0 1.0 0.00 0.00 0.00 66 1007.0
20260508034046 37 68 0.0 2.0 0.00 0.00 0.00 66 1006.9
20260508033546 37 67 0.0 2.0 0.00 0.00 0.00 66 1006.8
20260508033053 37 66 0.0 1.0 0.00 0.00 0.00 64 1006.7
20260508032548 37 66 0.0 1.0 0.00 0.00 0.00 65 1006.9
20260508032045 38 66 0.0 2.0 0.00 0.00 0.00 63 1007.0
20260508031601 38 66 1.0 2.0 0.00 0.00 0.00 64 1007.0
20260508031044 38 66 1.0 2.0 0.00 0.00 0.00 63 1007.0
20260508030545 38 66 0.0 2.0 0.00 0.00 0.00 65 1006.9
20260508030107 38 66 1.0 2.0 0.00 0.00 0.00 65 1007.0
20260508025545 38 66 0.0 1.0 0.00 0.00 0.00 65 1006.9
20260508025050 38 66 0.0 1.0 0.00 0.00 0.00 63 1006.8
20260508024549 38 66 0.0 2.0 0.00 0.00 0.00 63 1006.9
20260508024046 38 60 0.0 2.0 0.00 0.00 0.00 63 1006.8
20260508023546 38 43 1.0 2.0 0.00 0.00 0.00 65 1006.8
20260508023050 38 57 1.0 2.0 0.00 0.00 0.00 64 1006.7
20260508022544 37 3 0.0 2.0 0.00 0.00 0.00 66 1006.7
20260508022048 37 58 0.0 1.0 0.00 0.00 0.00 66 1006.7
20260508021605 37 58 0.0 1.0 0.00 0.00 0.00 65 1006.7
20260508021048 38 0 0.0 2.0 0.00 0.00 0.00 64 1006.7
20260508020543 38 58 0.0 2.0 0.00 0.00 0.00 64 1006.7
20260508020051 38 58 0.0 1.0 0.00 0.00 0.00 63 1006.7
20260508015545 38 47 0.0 1.0 0.00 0.01 0.00 62 1006.7
20260508015045 38 0 0.0 1.0 0.00 0.01 0.00 61 1006.7
20260508014548 38 47 0.0 1.0 0.00 0.01 0.00 61 1006.6
20260508014046 38 47 0.0 1.0 0.00 0.01 0.00 64 1006.7
20260508013548 39 0 0.0 1.0 0.00 0.01 0.00 61 1006.7
20260508013103 39 0 0.0 1.0 0.00 0.01 0.00 62 1006.6
20260508012544 39 47 0.0 1.0 0.00 0.01 0.00 63 1006.5
20260508012048 39 0 0.0 1.0 0.00 0.01 0.00 61 1006.6
20260508011556 39 337 0.0 1.0 0.00 0.01 0.00 62 1006.7
20260508011050 39 0 0.0 1.0 0.00 0.01 0.00 63 1006.5
20260508010544 39 0 0.0 1.0 0.00 0.01 0.00 63 1006.4
20260508010055 40 336 0.0 1.0 0.00 0.01 0.00 63 1006.3
20260508005544 40 0 0.0 1.0 0.00 0.02 0.00 62 1006.3
20260508005045 41 0 0.0 1.0 0.00 0.02 0.00 61 1006.3
20260508004557 41 336 0.0 1.0 0.00 0.02 0.00 61 1006.2
20260508004044 41 0 0.0 1.0 0.00 0.02 0.00 63 1006.1
20260508003543 41 0 0.0 1.0 0.00 0.02 0.00 62 1006.1
20260508003105 41 0 0.0 1.0 0.00 0.02 0.00 61 1006.0
20260508002545 41 0 0.0 1.0 0.00 0.02 0.00 59 1005.9
20260508002045 42 0 0.0 1.0 0.00 0.02 0.00 60 1005.8
20260508001552 43 0 0.0 3.0 0.00 0.02 0.00 59 1005.8
20260508001043 43 335 0.0 3.0 0.00 0.02 0.00 53 1005.8
20260508000543 44 257 0.0 2.0 0.00 0.02 0.00 55 1005.8
20260508000053 44 49 0.0 2.0 0.00 0.02 0.00 53 1005.9
20260507235544 44 274 0.0 2.0 0.00 0.05 0.00 57 1005.9
20260507235045 44 304 0.0 2.0 0.00 0.05 0.00 52 1006.0
20260507234552 44 268 1.0 4.0 0.00 0.05 0.00 53 1005.8
20260507234043 45 244 0.0 4.0 0.00 0.05 0.00 51 1005.8
20260507233544 45 270 1.0 2.0 0.00 0.05 0.00 50 1005.8
20260507233053 45 59 0.0 2.0 0.00 0.05 0.00 50 1005.7
20260507232548 45 0 0.0 7.0 0.00 0.05 0.00 52 1005.7
20260507232045 45 347 1.0 7.0 0.00 0.05 0.00 47 1005.7
20260507231557 45 292 2.0 7.0 0.00 0.05 0.00 48 1005.6
20260507231045 46 271 2.0 7.0 0.00 0.05 0.00 46 1005.6
20260507230545 46 316 1.0 7.0 0.00 0.05 0.00 45 1005.6
20260507230054 47 34 2.0 7.0 0.00 0.05 0.00 49 1005.6
20260507225545 47 269 1.0 6.0 0.00 0.05 0.00 50 1005.5
20260507225045 47 271 3.0 6.0 0.00 0.05 0.00 45 1005.5
20260507224559 47 281 3.0 6.0 0.00 0.05 0.00 47 1005.5
20260507224044 47 245 2.0 5.0 0.00 0.05 0.00 46 1005.4
20260507223547 47 307 2.0 4.0 0.00 0.05 0.00 46 1005.3
20260507223050 47 285 1.0 7.0 0.00 0.05 0.00 48 1005.3
20260507222546 47 313 3.0 7.0 0.00 0.05 0.00 47 1005.4
20260507222044 46 257 2.0 6.0 0.00 0.05 0.00 49 1005.4
20260507221551 47 37 2.0 4.0 0.00 0.05 0.00 46 1005.3
20260507221045 47 276 1.0 6.0 0.00 0.05 0.00 46 1005.3
20260507220545 48 178 2.0 6.0 0.00 0.05 0.00 44 1005.2
20260507220048 49 229 3.0 6.0 0.00 0.05 0.00 44 1005.2
20260507215548 49 284 2.0 6.0 0.00 0.05 0.00 48 1005.2
20260507215046 49 210 3.0 6.0 0.00 0.05 0.00 45 1005.1
20260507214553 49 219 3.0 6.0 0.00 0.05 0.00 45 1005.1
20260507214045 50 257 3.0 6.0 0.00 0.05 0.00 45 1005.1
20260507213545 50 254 3.0 7.0 0.00 0.05 0.00 47 1005.0
20260507213052 50 276 2.0 7.0 0.00 0.05 0.00 45 1005.1
20260507212546 50 268 3.0 8.0 0.00 0.05 0.00 42 1005.0
20260507212045 50 316 3.0 8.0 0.00 0.05 0.00 44 1004.9
20260507211552 50 15 2.0 7.0 0.00 0.05 0.00 41 1004.9
20260507211044 50 272 2.0 6.0 0.00 0.05 0.00 44 1004.9
20260507210546 50 335 3.0 6.0 0.00 0.05 0.00 45 1004.8
20260507210113 51 302 2.0 10.0 0.00 0.05 0.00 43 1004.7
20260507205542 51 178 3.0 10.0 0.00 0.07 0.00 44 1004.8
20260507205048 52 178 4.0 10.0 0.00 0.07 0.00 41 1004.7
20260507204557 51 250 3.0 7.0 0.00 0.07 0.00 43 1004.4
20260507204044 51 267 3.0 8.0 0.00 0.07 0.00 43 1004.6
20260507203546 52 267 4.0 9.0 0.00 0.07 0.00 43 1004.5
20260507203051 53 283 3.0 9.0 0.00 0.07 0.00 41 1004.4
20260507202545 53 278 2.0 7.0 0.00 0.07 0.00 43 1004.4
20260507202045 53 251 3.0 7.0 0.00 0.07 0.00 47 1004.4
20260507201551 52 264 3.0 8.0 0.00 0.07 0.00 42 1004.4
20260507201045 53 285 3.0 8.0 0.00 0.07 0.00 45 1004.5
20260507200546 53 293 3.0 7.0 0.00 0.07 0.00 43 1004.6
20260507200104 53 235 3.0 8.0 0.00 0.07 0.00 44 1004.5
20260507195551 52 285 4.0 8.0 0.00 0.10 0.00 43 1004.4
20260507195045 53 278 3.0 8.0 0.00 0.10 0.00 40 1004.4
20260507194556 52 178 2.0 9.0 0.00 0.10 0.00 42 1004.5
20260507194043 52 178 4.0 9.0 0.00 0.10 0.00 45 1004.6
20260507193546 53 159 3.0 6.0 0.00 0.10 0.00 44 1004.7
20260507193110 51 178 3.0 10.0 0.00 0.10 0.00 42 1004.7
20260507192545 52 178 3.0 10.0 0.00 0.10 0.00 40 1004.8
20260507192049 54 172 4.0 10.0 0.00 0.10 0.00 45 1004.8
20260507191556 54 283 2.0 8.0 0.00 0.10 0.00 44 1004.8
20260507191046 53 252 4.0 7.0 0.00 0.10 0.00 43 1004.8
20260507190547 55 193 3.0 7.0 0.00 0.10 0.00 41 1004.7
20260507190049 54 193 3.0 11.0 0.00 0.10 0.00 43 1004.7
20260507185545 53 204 3.0 11.0 0.00 0.12 0.00 45 1004.8
20260507185045 53 263 5.0 10.0 0.00 0.12 0.00 43 1004.8
20260507184548 52 274 3.0 10.0 0.00 0.12 0.00 48 1004.8
20260507184043 52 225 4.0 10.0 0.00 0.12 0.00 44 1005.0
20260507183544 52 271 4.0 10.0 0.00 0.12 0.00 48 1004.9
20260507183059 52 203 4.0 10.0 0.00 0.12 0.00 43 1004.9
20260507182545 52 285 5.0 10.0 0.00 0.12 0.00 46 1005.0
20260507182044 52 193 5.0 10.0 0.00 0.12 0.00 49 1004.8
20260507181548 54 257 4.0 9.0 0.00 0.12 0.00 46 1004.8
20260507181042 54 193 3.0 11.0 0.00 0.12 0.00 41 1004.9
20260507180545 52 270 4.0 11.0 0.00 0.12 0.00 47 1004.9
20260507180054 51 264 3.0 9.0 0.00 0.12 0.00 47 1004.8
20260507175544 52 269 5.0 9.0 0.00 0.27 0.00 49 1004.9
20260507175046 52 219 4.0 9.0 0.00 0.27 0.00 46 1004.9
20260507174600 51 256 3.0 11.0 0.00 0.27 0.00 47 1005.0
20260507174042 51 266 4.0 11.0 0.00 0.27 0.00 48 1005.1
20260507173545 51 259 4.0 11.0 0.00 0.27 0.00 46 1005.1
20260507173128 51 271 5.0 9.0 0.00 0.27 0.00 47 1005.0
20260507172544 51 96 5.0 12.0 0.00 0.27 0.00 49 1005.1
20260507172044 51 178 4.0 13.0 0.00 0.27 0.00 46 1005.1
20260507171551 52 178 3.0 13.0 0.00 0.27 0.00 48 1005.2
20260507171050 52 178 5.0 11.0 0.00 0.27 0.00 46 1005.4
20260507170543 53 178 2.0 11.0 0.00 0.27 0.00 52 1005.4
20260507170054 52 178 3.0 11.0 0.00 0.27 0.00 53 1005.2
20260507165542 52 178 2.0 9.0 0.00 0.36 0.00 53 1005.6
20260507165045 52 193 3.0 6.0 0.00 0.36 0.00 50 1005.4
20260507164557 51 248 2.0 7.0 0.00 0.36 0.00 50 1005.6
20260507164045 51 178 3.0 7.0 0.00 0.36 0.00 52 1005.6
20260507163542 51 178 3.0 6.0 0.00 0.36 0.00 57 1005.7
20260507163051 50 178 2.0 8.0 0.00 0.36 0.00 57 1005.6
20260507162545 50 176 2.0 9.0 0.00 0.36 0.00 59 1005.7
20260507162044 49 178 2.0 9.0 0.00 0.36 0.00 59 1005.8
20260507161606 49 178 2.0 9.0 0.00 0.36 0.00 53 1005.9
20260507161044 49 178 3.0 7.0 0.00 0.36 0.00 55 1005.9
20260507160542 49 130 3.0 7.0 0.00 0.36 0.00 59 1006.0
20260507160104 48 178 2.0 9.0 0.00 0.36 0.00 62 1006.0
20260507155545 47 178 3.0 9.0 0.00 0.45 0.00 60 1006.1
20260507155045 47 178 1.0 6.0 0.00 0.45 0.00 63 1006.1
20260507154551 47 178 2.0 8.0 0.00 0.45 0.00 59 1006.3
20260507154044 47 271 4.0 8.0 0.00 0.45 0.00 60 1006.5
20260507153545 47 282 2.0 4.0 0.00 0.45 0.00 65 1006.5
20260507153048 46 197 1.0 5.0 0.00 0.45 0.00 63 1006.3
20260507152548 45 289 1.0 5.0 0.00 0.45 0.00 66 1006.4
20260507152044 45 289 2.0 5.0 0.00 0.45 0.00 67 1006.6
20260507151550 46 242 1.0 4.0 0.00 0.45 0.00 65 1006.6
20260507151045 46 286 1.0 7.0 0.00 0.45 0.00 65 1006.4
20260507150550 47 269 3.0 7.0 0.00 0.45 0.00 68 1006.6
20260507150057 47 268 3.0 6.0 0.00 0.45 0.00 69 1006.5
20260507145545 46 309 2.0 6.0 0.00 0.50 0.00 67 1006.7
20260507145045 45 270 2.0 8.0 0.00 0.50 0.00 67 1006.4
20260507144559 46 256 3.0 8.0 0.00 0.50 0.00 63 1006.4
20260507144042 45 265 2.0 6.0 0.00 0.50 0.00 72 1006.4
20260507143544 45 217 1.0 5.0 0.00 0.50 0.00 69 1006.5
20260507143059 45 248 1.0 5.0 0.00 0.50 0.00 70 1006.4
20260507142544 45 248 2.0 5.0 0.00 0.50 0.00 69 1006.4
20260507142049 45 236 2.0 4.0 0.00 0.50 0.00 71 1006.4
20260507141602 44 266 2.0 8.0 0.00 0.50 0.00 70 1006.5
20260507141045 44 230 2.0 8.0 0.00 0.50 0.00 69 1006.4
20260507140544 44 197 3.0 7.0 0.00 0.50 0.00 72 1006.6
20260507140059 45 262 1.0 5.0 0.00 0.50 0.00 75 1006.5
20260507135548 44 256 2.0 8.0 0.00 0.57 0.00 70 1006.6
20260507135045 44 277 2.0 8.0 0.00 0.57 0.00 75 1006.5
20260507134606 44 257 3.0 6.0 0.00 0.57 0.00 72 1006.5
20260507134044 44 300 1.0 5.0 0.00 0.57 0.00 77 1006.5
20260507133546 44 276 2.0 5.0 0.00 0.57 0.00 75 1006.6
20260507133054 44 245 2.0 5.0 0.00 0.57 0.00 82 1006.5
20260507132544 43 256 1.0 3.0 0.00 0.57 0.00 85 1006.6
20260507132044 43 279 1.0 3.0 0.00 0.57 0.00 86 1006.6
20260507131557 43 250 1.0 3.0 0.00 0.57 0.00 87 1006.6
20260507131044 43 261 1.0 3.0 0.00 0.57 0.00 88 1006.5
20260507130544 43 281 1.0 3.0 0.00 0.57 0.00 84 1006.4
20260507130052 43 214 0.0 2.0 0.00 0.57 0.00 85 1006.5
20260507125542 42 278 0.0 2.0 0.00 0.62 0.00 87 1006.3
20260507125045 42 0 1.0 2.0 0.00 0.62 0.00 85 1006.4
20260507124554 42 0 1.0 3.0 0.00 0.62 0.00 86 1006.4
20260507124044 42 251 1.0 3.0 0.00 0.62 0.00 88 1006.5
20260507123545 41 0 1.0 3.0 0.00 0.62 0.00 88 1006.4
20260507123054 41 243 1.0 2.0 0.00 0.62 0.00 87 1006.4
20260507122541 41 256 0.0 1.0 0.00 0.62 0.00 88 1006.4
20260507122047 41 193 0.0 1.0 0.00 0.62 0.00 85 1006.3
20260507121550 42 202 0.0 1.0 0.00 0.62 0.00 84 1006.2
20260507121042 42 202 0.0 1.0 0.00 0.62 0.00 83 1006.3
20260507120541 42 193 0.0 1.0 0.00 0.62 0.00 85 1006.2
20260507120050 42 246 0.0 2.0 0.00 0.62 0.00 83 1006.2
20260507115545 42 249 0.0 4.0 0.00 0.63 0.00 87 1006.1
20260507115045 41 255 1.0 4.0 0.00 0.63 0.00 86 1006.1
20260507114600 41 261 2.0 4.0 0.00 0.63 0.00 85 1006.2
20260507114047 41 282 1.0 1.0 0.00 0.63 0.00 87 1006.0
20260507113541 41 259 1.0 1.0 0.00 0.63 0.00 88 1006.1
20260507113052 41 0 0.0 3.0 0.00 0.63 0.00 88 1005.9
20260507112541 40 0 0.0 3.0 0.00 0.63 0.00 92 1005.9
20260507112041 40 321 0.0 0.0 0.00 0.63 0.00 96 1005.9
20260507111558 40 0 0.0 0.0 0.00 0.63 0.00 97 1006.2
20260507111041 40 0 0.0 0.0 0.00 0.63 0.00 97 1006.2
20260507110542 39 0 0.0 0.0 0.00 0.63 0.00 96 1006.1
20260507110053 39 0 0.0 2.0 0.00 0.63 0.00 96 1006.0
20260507105545 39 0 0.0 2.0 0.00 0.63 0.00 95 1006.1
20260507105045 39 76 0.0 5.0 0.00 0.63 0.00 95 1006.1
20260507104551 39 51 0.0 5.0 0.00 0.63 0.00 96 1006.1
20260507104044 39 311 1.0 5.0 0.00 0.63 0.00 97 1006.2
20260507103545 39 0 0.0 1.0 0.00 0.63 0.00 97 1006.1
20260507103048 39 330 0.0 1.0 0.00 0.63 0.00 98 1006.0